Tony, WI

10:44 AM CST on January 20, 2017 (GMT -0600)
Ladysmith

Weather History for KRCX - February, 2013

Change the Weather History Date:

Tuesday, February 5, 2013

  Actual Average (KPBH) Record (KPBH)
Temperature  
Mean Temperature 8 °F -  
Max Temperature 21 °F 25 °F 51 °F (2005)
Min Temperature -4 °F 7 °F -23 °F (2007)
Degree Days  
Heating Degree Days 56    
Moisture  
Dew Point 10 °F    
Average Humidity 85    
Maximum Humidity 100    
Minimum Humidity 62    
Precipitation  
Precipitation 0.01 in - - ()
Sea Level Pressure  
Sea Level Pressure 29.80 in    
Wind  
Wind Speed 6 mph (West)    
Max Wind Speed 14 mph    
Max Gust Speed 18 mph    
Visibility 6 miles    
Events Snow    
Averages and records for this station are not official NWS values.
T = Trace of Precipitation, MM = Missing Value Source: NWS Daily Summary

Daily Weather History Graph

Daily Weather History Graph

Search for Another Location

Airport or City:

Trip Planner

Search our weather history database for the weather conditions in past years. The results will help you decide how hot, cold, wet, or windy it might be!

Date:

Astronomy

Feb. 05, 2013 Rise Set
Actual Time 7:19 AM CST 5:17 PM CST
Civil Twilight 6:48 AM CST 5:48 PM CST
Nautical Twilight 6:13 AM CST 6:23 PM CST
Astronomical Twilight 5:38 AM CST 6:58 PM CST
Moon 3:07 AM CST (2/5) 12:28 PM CST (2/5)
Length of Visible Light 10h 59m
Length of Day
9h 57m
Waning Crescent, 26% of the Moon is Illuminated
Feb 5
Waning Crescent
Feb 10
New
Feb 17
First Quarter
Feb 25
Full
Mar 4
Last Quarter

Hourly Weather History & Observations

Time (CST) Temp. Windchill Dew Point Humidity Pressure Visibility Wind Dir Wind Speed Gust Speed Precip Events Conditions
12:15 AM 12.2 °F 4.3 °F 1.4 °F 62% 29.81 in 10.0 mi South 4.6 mph - N/A   Overcast
12:35 AM 10.4 °F -0.4 °F 1.4 °F 67% 29.78 in 10.0 mi SSE 6.9 mph - N/A   Overcast
1:15 AM 10.4 °F -2.4 °F 5.0 °F 79% 29.75 in 1.8 mi SSE 9.2 mph - N/A Snow Light Snow
1:35 AM 10.4 °F -2.4 °F 6.8 °F 85% 29.73 in 1.8 mi SSE 9.2 mph - N/A Snow Light Snow
1:55 AM 10.4 °F -2.4 °F 8.6 °F 92% 29.71 in 1.5 mi SSE 9.2 mph - N/A Snow Light Snow
2:15 AM 12.2 °F 0.7 °F 8.6 °F 85% 29.71 in 1.8 mi South 8.1 mph - N/A Snow Light Snow
2:35 AM 12.2 °F -0.2 °F 8.6 °F 85% 29.71 in 1.5 mi SSE 9.2 mph - N/A Snow Light Snow
3:15 AM 12.2 °F 1.7 °F 8.6 °F 85% 29.69 in 7.0 mi South 6.9 mph - 0.01 in Snow Light Snow
3:35 AM 12.2 °F 1.7 °F 8.6 °F 85% 29.67 in 7.0 mi South 6.9 mph - 0.01 in Snow Light Snow
3:55 AM 12.2 °F 1.7 °F 10.4 °F 92% 29.67 in 5.0 mi South 6.9 mph - 0.01 in Snow Light Snow
4:15 AM 12.2 °F 0.7 °F 10.4 °F 92% 29.67 in 3.0 mi South 8.1 mph - N/A Snow Light Snow
4:35 AM 14.0 °F 2.9 °F 12.2 °F 93% 29.65 in 5.0 mi South 8.1 mph - N/A Snow Light Snow
4:55 AM 14.0 °F 5.1 °F 12.2 °F 93% 29.66 in 7.0 mi South 5.8 mph - N/A Snow Light Snow
5:15 AM 14.0 °F 3.9 °F 12.2 °F 93% 29.66 in 5.0 mi South 6.9 mph - N/A Snow Light Snow
5:35 AM 14.0 °F 6.5 °F 12.2 °F 93% 29.65 in 4.0 mi South 4.6 mph - N/A Snow Light Snow
6:15 AM 14.0 °F 5.1 °F 12.2 °F 93% 29.64 in 3.0 mi South 5.8 mph - N/A   Overcast
6:35 AM 14.0 °F 8.2 °F 12.2 °F 93% 29.63 in 4.0 mi South 3.5 mph - N/A   Overcast
6:55 AM 14.0 °F 6.5 °F 14.0 °F 100% 29.64 in 3.0 mi South 4.6 mph - N/A   Overcast
7:15 AM 15.8 °F - 14.0 °F 93% 29.64 in 3.0 mi Calm Calm - N/A Snow Light Snow
7:35 AM 15.8 °F - 14.0 °F 93% 29.65 in 2.5 mi Calm Calm - N/A   Overcast
7:55 AM 15.8 °F - 14.0 °F 93% 29.65 in 2.0 mi Calm Calm - N/A Snow Light Snow
8:15 AM 15.8 °F - 14.0 °F 93% 29.66 in 1.5 mi Calm Calm - N/A   Overcast
8:35 AM 15.8 °F - 14.0 °F 93% 29.67 in 1.2 mi Calm Calm - N/A Snow Light Snow
9:15 AM 17.6 °F - 14.0 °F 86% 29.69 in 1.2 mi Calm Calm - N/A   Overcast
9:35 AM 17.6 °F 12.3 °F 15.8 °F 93% 29.69 in 1.2 mi WSW 3.5 mph - N/A   Overcast
9:55 AM 17.6 °F 10.7 °F 15.8 °F 93% 29.70 in 1.8 mi West 4.6 mph - N/A   Overcast
10:15 AM 19.4 °F 14.3 °F 17.6 °F 93% 29.71 in 2.0 mi West 3.5 mph - N/A   Overcast
10:35 AM 19.4 °F 10.4 °F 17.6 °F 93% 29.72 in 4.0 mi NW 6.9 mph - N/A   Overcast
10:55 AM 19.4 °F 9.5 °F 19.4 °F 100% 29.73 in 5.0 mi NNW 8.1 mph - N/A   Overcast
11:15 AM 19.4 °F 6.6 °F 19.4 °F 100% 29.75 in 5.0 mi NW 12.7 mph - N/A   Overcast
11:35 AM 19.4 °F 9.5 °F 19.4 °F 100% 29.76 in 7.0 mi NW 8.1 mph - N/A   Overcast
11:55 AM 21.2 °F 10.9 °F 19.4 °F 93% 29.77 in 7.0 mi NW 9.2 mph - N/A   Overcast
12:15 PM 21.2 °F 9.5 °F 19.4 °F 93% 29.78 in 7.0 mi NW 11.5 mph - N/A Snow Light Snow
12:35 PM 21.2 °F 8.9 °F 17.6 °F 86% 29.79 in 7.0 mi NW 12.7 mph - N/A   Overcast
12:55 PM 21.2 °F 10.1 °F 17.6 °F 86% 29.80 in 5.0 mi NW 10.4 mph - N/A Snow Light Snow
1:15 PM 21.2 °F 8.9 °F 15.8 °F 80% 29.81 in 7.0 mi NW 12.7 mph 16.1 mph N/A Snow Light Snow
1:35 PM 21.2 °F 8.9 °F 14.0 °F 74% 29.83 in 7.0 mi NW 12.7 mph - N/A Snow Light Snow
1:55 PM 21.2 °F 8.3 °F 14.0 °F 74% 29.83 in 7.0 mi NNW 13.8 mph 18.4 mph N/A Snow Light Snow
2:15 PM 21.2 °F 9.5 °F 14.0 °F 74% 29.83 in 7.0 mi NNW 11.5 mph - N/A Snow Light Snow
2:35 PM 21.2 °F 10.1 °F 14.0 °F 74% 29.84 in 10.0 mi NNW 10.4 mph - N/A   Overcast
2:55 PM 21.2 °F 9.5 °F 12.2 °F 68% 29.85 in 10.0 mi NNW 11.5 mph - N/A   Mostly Cloudy
3:15 PM 21.2 °F 8.9 °F 12.2 °F 68% 29.87 in 10.0 mi NNW 12.7 mph 17.3 mph N/A   Scattered Clouds
3:35 PM 21.2 °F 11.7 °F 12.2 °F 68% 29.88 in 10.0 mi NNW 8.1 mph - N/A   Scattered Clouds
3:55 PM 21.2 °F 11.7 °F 12.2 °F 68% 29.88 in 10.0 mi NNW 8.1 mph - N/A   Scattered Clouds
4:15 PM 21.2 °F 11.7 °F 12.2 °F 68% 29.89 in 10.0 mi NW 8.1 mph - N/A   Clear
4:35 PM 21.2 °F 11.7 °F 12.2 °F 68% 29.90 in 10.0 mi NNW 8.1 mph - N/A   Clear
4:55 PM 19.4 °F 11.5 °F 10.4 °F 68% 29.91 in 10.0 mi NNW 5.8 mph - N/A   Clear
5:15 PM 19.4 °F 11.5 °F 10.4 °F 68% 29.92 in 10.0 mi NNW 5.8 mph - N/A   Clear
5:35 PM 19.4 °F 12.8 °F 10.4 °F 68% 29.93 in 10.0 mi NNW 4.6 mph - N/A   Clear
6:15 PM 12.2 °F - 6.8 °F 79% 29.95 in 10.0 mi Calm Calm - N/A   Clear
6:35 PM 8.6 °F 2.0 °F 5.0 °F 85% 29.97 in 10.0 mi West 3.5 mph - N/A   Clear
6:55 PM 8.6 °F - 5.0 °F 85% 29.97 in 10.0 mi Calm Calm - N/A   Clear
7:15 PM 6.8 °F - 3.2 °F 85% 29.98 in 10.0 mi Calm Calm - N/A   Clear
8:35 PM 1.4 °F - -0.4 °F 92% 30.00 in 10.0 mi Calm Calm - N/A   Clear
8:55 PM 1.4 °F - -2.2 °F 85% 30.00 in 10.0 mi Calm Calm - N/A   Clear
9:15 PM -2.2 °F - -5.8 °F 85% 30.02 in 10.0 mi Calm Calm - N/A   Clear
9:55 PM -4.0 °F - -5.8 °F 92% 30.03 in 10.0 mi Calm Calm - N/A   Clear
10:15 PM -2.2 °F - -5.8 °F 85% 30.04 in 10.0 mi Calm Calm - N/A   Clear
10:35 PM -2.2 °F - -5.8 °F 85% 30.04 in 10.0 mi Calm Calm - N/A   Clear
11:15 PM -4.0 °F - -7.6 °F 85% 30.05 in 10.0 mi Calm Calm - N/A   Clear
11:35 PM -4.0 °F - -7.6 °F 85% 30.05 in 10.0 mi Calm Calm - N/A   Clear